| time (UTC) | temp F | wind direction | speed knots | gust knots | rain 1hr in | rain 24hr in | rain mn in | humidity % | barometer mb |
| 20260906214404 | 86 | 251 | 1.7 | 5.2 | 0.00 | 0.00 | 0.00 | 31 | 1020.8 |
| 20260906213903 | 86 | 309 | 1.7 | 6.1 | 0.00 | 0.00 | 0.00 | 31 | 1020.9 |
| 20260906213404 | 86 | 259 | 1.7 | 6.1 | 0.00 | 0.00 | 0.00 | 34 | 1020.9 |
| 20260906212904 | 86 | 271 | 1.7 | 6.1 | 0.00 | 0.00 | 0.00 | 32 | 1021.0 |
| 20260906212402 | 86 | 141 | 2.6 | 5.2 | 0.00 | 0.00 | 0.00 | 32 | 1021.0 |
| 20260906211901 | 86 | 269 | 0.9 | 5.2 | 0.00 | 0.00 | 0.00 | 33 | 1021.0 |
| 20260906211401 | 86 | 247 | 2.6 | 6.1 | 0.00 | 0.00 | 0.00 | 33 | 1021.1 |
| 20260906210901 | 85 | 258 | 1.7 | 5.2 | 0.00 | 0.00 | 0.00 | 32 | 1021.0 |
| 20260906210401 | 85 | 238 | 3.5 | 8.7 | 0.00 | 0.00 | 0.00 | 33 | 1021.1 |
| 20260906205901 | 86 | 263 | 1.7 | 8.7 | 0.00 | 0.00 | 0.00 | 34 | 1021.2 |
| 20260906205401 | 86 | 54 | 0.9 | 4.3 | 0.00 | 0.00 | 0.00 | 35 | 1021.2 |
| 20260906204901 | 85 | 241 | 1.7 | 6.1 | 0.00 | 0.00 | 0.00 | 35 | 1021.5 |
| 20260906204401 | 85 | 256 | 2.6 | 8.7 | 0.00 | 0.00 | 0.00 | 35 | 1021.4 |
| 20260906203901 | 85 | 259 | 4.3 | 7.8 | 0.00 | 0.00 | 0.00 | 35 | 1021.4 |
| 20260906203401 | 85 | 7 | 3.5 | 7.0 | 0.00 | 0.00 | 0.00 | 34 | 1021.5 |
| 20260906202900 | 85 | 277 | 2.6 | 7.8 | 0.00 | 0.00 | 0.00 | 35 | 1021.7 |
| 20260906202401 | 85 | 75 | 1.7 | 5.2 | 0.00 | 0.00 | 0.00 | 37 | 1021.6 |
| 20260906201901 | 85 | 220 | 4.3 | 8.7 | 0.00 | 0.00 | 0.00 | 34 | 1021.7 |
| 20260906195901 | 86 | 19 | 2.6 | 6.1 | 0.00 | 0.00 | 0.00 | 34 | 1021.8 |
| 20260906194901 | 86 | 83 | 1.7 | 5.2 | 0.00 | 0.00 | 0.00 | 35 | 1021.9 |
| 20260906193901 | 85 | 240 | 3.5 | 8.7 | 0.00 | 0.00 | 0.00 | 34 | 1022.0 |
| 20260906192901 | 85 | 261 | 1.7 | 5.2 | 0.00 | 0.00 | 0.00 | 33 | 1022.1 |
| 20260906192401 | 84 | 86 | 1.7 | 7.0 | 0.00 | 0.00 | 0.00 | 33 | 1022.1 |
| 20260906191901 | 85 | 245 | 0.9 | 6.1 | 0.00 | 0.00 | 0.00 | 32 | 1022.2 |
| 20260906191401 | 84 | 323 | 1.7 | 4.3 | 0.00 | 0.00 | 0.00 | 32 | 1022.3 |
| 20260906190902 | 83 | 232 | 2.6 | 5.2 | 0.00 | 0.00 | 0.00 | 34 | 1022.3 |
| 20260906190401 | 84 | 84 | 4.3 | 10.4 | 0.00 | 0.00 | 0.00 | 33 | 1022.4 |
| 20260906185901 | 84 | 352 | 1.7 | 5.2 | 0.00 | 0.00 | 0.00 | 34 | 1022.5 |
| 20260906184901 | 85 | 84 | 0.9 | 2.6 | 0.00 | 0.00 | 0.00 | 36 | 1022.7 |
| 20260906184401 | 84 | 276 | 0.9 | 2.6 | 0.00 | 0.00 | 0.00 | 34 | 1022.9 |
| 20260906182901 | 83 | 105 | 0.9 | 2.6 | 0.00 | 0.00 | 0.00 | 36 | 1023.1 |
| 20260906182401 | 82 | 37 | 1.7 | 5.2 | 0.00 | 0.00 | 0.00 | 35 | 1023.2 |
| 20260906181401 | 83 | 88 | 0.0 | 4.3 | 0.00 | 0.00 | 0.00 | 36 | 1023.4 |
| 20260906180901 | 82 | 251 | 0.9 | 7.0 | 0.00 | 0.00 | 0.00 | 35 | 1023.5 |
| 20260906180402 | 82 | 83 | 0.0 | 1.7 | 0.00 | 0.00 | 0.00 | 36 | 1023.7 |
| 20260906175901 | 82 | 88 | 0.9 | 4.3 | 0.00 | 0.00 | 0.00 | 36 | 1023.8 |
| 20260906175401 | 82 | 79 | 1.7 | 5.2 | 0.00 | 0.00 | 0.00 | 35 | 1023.8 |
| 20260906174402 | 82 | 277 | 0.0 | 2.6 | 0.00 | 0.00 | 0.00 | 36 | 1024.0 |
| 20260906173901 | 81 | 90 | 0.9 | 2.6 | 0.00 | 0.00 | 0.00 | 37 | 1023.9 |
| 20260906173401 | 81 | 254 | 0.9 | 2.6 | 0.00 | 0.00 | 0.00 | 36 | 1024.0 |
| 20260906172902 | 81 | 252 | 0.9 | 4.3 | 0.00 | 0.00 | 0.00 | 36 | 1024.1 |
| 20260906172401 | 81 | 233 | 1.7 | 5.2 | 0.00 | 0.00 | 0.00 | 35 | 1024.1 |
| 20260906171901 | 81 | 231 | 2.6 | 5.2 | 0.00 | 0.00 | 0.00 | 34 | 1024.2 |
| 20260906171401 | 81 | 268 | 0.9 | 4.3 | 0.00 | 0.00 | 0.00 | 35 | 1024.1 |
| 20260906170901 | 81 | 233 | 1.7 | 2.6 | 0.00 | 0.00 | 0.00 | 35 | 1024.1 |
| 20260906170401 | 82 | 82 | 0.0 | 2.6 | 0.00 | 0.00 | 0.00 | 35 | 1024.2 |
| 20260906165402 | 81 | 72 | 0.0 | 1.7 | 0.00 | 0.00 | 0.00 | 35 | 1024.2 |
| 20260906164902 | 80 | 249 | 0.9 | 1.7 | 0.00 | 0.00 | 0.00 | 35 | 1024.2 |
| 20260906164402 | 79 | 65 | 0.0 | 2.6 | 0.00 | 0.00 | 0.00 | 36 | 1024.2 |
| 20260906163901 | 79 | 103 | 1.7 | 6.1 | 0.00 | 0.00 | 0.00 | 37 | 1024.2 |
| 20260906163402 | 78 | 255 | 0.9 | 5.2 | 0.00 | 0.00 | 0.00 | 37 | 1024.1 |
| 20260906162901 | 78 | 222 | 2.6 | 5.2 | 0.00 | 0.00 | 0.00 | 38 | 1024.2 |
| 20260906162402 | 78 | 212 | 2.6 | 7.0 | 0.00 | 0.00 | 0.00 | 37 | 1024.2 |
| 20260906161401 | 79 | 225 | 0.9 | 2.6 | 0.00 | 0.00 | 0.00 | 37 | 1024.2 |
| 20260906160902 | 79 | 237 | 0.0 | 1.7 | 0.00 | 0.00 | 0.00 | 35 | 1024.1 |
| 20260906160401 | 79 | 303 | 0.0 | 0.9 | 0.00 | 0.00 | 0.00 | 35 | 1024.2 |
| 20260906155901 | 78 | 209 | 0.0 | 0.9 | 0.00 | 0.00 | 0.00 | 36 | 1024.2 |
| 20260906154902 | 78 | 228 | 0.0 | 0.0 | 0.00 | 0.00 | 0.00 | 36 | 1024.1 |
| 20260906154401 | 78 | 247 | 0.0 | 2.6 | 0.00 | 0.00 | 0.00 | 36 | 1024.1 |
| 20260906153903 | 79 | 241 | 0.9 | 4.3 | 0.00 | 0.00 | 0.00 | 35 | 1024.1 |
| 20260906153401 | 78 | 319 | 0.0 | 0.0 | 0.00 | 0.00 | 0.00 | 37 | 1024.0 |
| 20260906152901 | 77 | 79 | 0.0 | 0.0 | 0.00 | 0.00 | 0.00 | 39 | 1024.0 |
| 20260906152401 | 76 | 79 | 0.0 | 1.7 | 0.00 | 0.00 | 0.00 | 38 | 1024.0 |
| 20260906151401 | 76 | 78 | 0.9 | 4.3 | 0.00 | 0.00 | 0.00 | 39 | 1024.0 |
| 20260906150901 | 76 | 85 | 0.9 | 5.2 | 0.00 | 0.00 | 0.00 | 41 | 1024.0 |
| 20260906150402 | 75 | 68 | 0.9 | 1.7 | 0.00 | 0.00 | 0.00 | 41 | 1024.0 |
| 20260906145901 | 75 | 86 | 0.9 | 2.6 | 0.00 | 0.00 | 0.00 | 41 | 1023.9 |
| 20260906145402 | 74 | 58 | 0.9 | 2.6 | 0.00 | 0.00 | 0.00 | 42 | 1024.0 |
| 20260906144901 | 73 | 4 | 0.0 | 2.6 | 0.00 | 0.00 | 0.00 | 43 | 1024.0 |
| 20260906144402 | 73 | 70 | 0.9 | 2.6 | 0.00 | 0.00 | 0.00 | 42 | 1024.0 |
| 20260906143402 | 72 | 5 | 0.9 | 2.6 | 0.00 | 0.00 | 0.00 | 44 | 1023.8 |
| 20260906141901 | 71 | 3 | 0.9 | 2.6 | 0.00 | 0.00 | 0.00 | 47 | 1023.7 |
| 20260906141402 | 70 | 23 | 0.9 | 2.6 | 0.00 | 0.00 | 0.00 | 47 | 1023.8 |
| 20260906140901 | 69 | 27 | 0.0 | 2.6 | 0.00 | 0.00 | 0.00 | 48 | 1023.8 |
| 20260906140401 | 69 | 355 | 0.0 | 2.6 | 0.00 | 0.00 | 0.00 | 49 | 1023.7 |
| 20260906135902 | 68 | 8 | 0.0 | 2.6 | 0.00 | 0.00 | 0.00 | 50 | 1023.6 |
| 20260906135401 | 67 | 342 | 0.9 | 2.6 | 0.00 | 0.00 | 0.00 | 50 | 1023.5 |
| 20260906134902 | 66 | 94 | 0.0 | 0.0 | 0.00 | 0.00 | 0.00 | 52 | 1023.5 |
| 20260906132902 | 63 | 5 | 0.0 | 0.0 | 0.00 | 0.00 | 0.00 | 57 | 1023.5 |
| 20260906132402 | 62 | 28 | 0.0 | 0.9 | 0.00 | 0.00 | 0.00 | 58 | 1023.4 |
| 20260906131902 | 62 | 350 | 0.0 | 1.7 | 0.00 | 0.00 | 0.00 | 58 | 1023.4 |
| 20260906131401 | 62 | 1 | 0.0 | 0.9 | 0.00 | 0.00 | 0.00 | 58 | 1023.3 |
| 20260906130901 | 62 | 2 | 0.0 | 0.9 | 0.00 | 0.00 | 0.00 | 58 | 1023.3 |
| 20260906130402 | 62 | 17 | 0.0 | 0.0 | 0.00 | 0.00 | 0.00 | 57 | 1023.3 |
| 20260906125902 | 62 | 46 | 0.0 | 0.0 | 0.00 | 0.00 | 0.00 | 58 | 1023.3 |
| 20260906125402 | 63 | 92 | 0.0 | 0.0 | 0.00 | 0.00 | 0.00 | 56 | 1023.4 |
| 20260906124902 | 63 | 23 | 0.0 | 0.0 | 0.00 | 0.00 | 0.00 | 55 | 1023.4 |
| 20260906124401 | 63 | 13 | 0.0 | 0.0 | 0.00 | 0.00 | 0.00 | 54 | 1023.3 |
| 20260906123902 | 64 | 47 | 0.0 | 0.0 | 0.00 | 0.00 | 0.00 | 53 | 1023.3 |
| 20260906123402 | 64 | 53 | 0.9 | 2.6 | 0.00 | 0.00 | 0.00 | 53 | 1023.2 |
| 20260906122902 | 64 | 74 | 0.0 | 2.6 | 0.00 | 0.00 | 0.00 | 53 | 1023.1 |
| 20260906122402 | 64 | 84 | 0.9 | 1.7 | 0.00 | 0.00 | 0.00 | 52 | 1023.1 |
| 20260906121902 | 64 | 72 | 0.0 | 2.6 | 0.00 | 0.00 | 0.00 | 52 | 1023.1 |
| 20260906121402 | 64 | 16 | 0.9 | 2.6 | 0.00 | 0.00 | 0.00 | 53 | 1023.1 |
| 20260906120902 | 63 | 75 | 0.0 | 1.7 | 0.00 | 0.00 | 0.00 | 54 | 1023.2 |
| 20260906120402 | 63 | 10 | 0.0 | 0.9 | 0.00 | 0.00 | 0.00 | 53 | 1023.2 |
| 20260906115902 | 63 | 94 | 0.0 | 0.0 | 0.00 | 0.00 | 0.00 | 53 | 1023.1 |
| 20260906115402 | 63 | 108 | 0.0 | 0.0 | 0.00 | 0.00 | 0.00 | 53 | 1023.1 |
| 20260906114902 | 63 | 355 | 0.0 | 1.7 | 0.00 | 0.00 | 0.00 | 53 | 1023.1 |
| 20260906114402 | 63 | 333 | 0.0 | 0.9 | 0.00 | 0.00 | 0.00 | 53 | 1022.9 |
| 20260906113902 | 63 | 328 | 0.0 | 1.7 | 0.00 | 0.00 | 0.00 | 53 | 1023.0 |
| 20260906113402 | 63 | 5 | 0.0 | 1.7 | 0.00 | 0.00 | 0.00 | 53 | 1023.0 |
| 20260906112902 | 63 | 16 | 0.0 | 1.7 | 0.00 | 0.00 | 0.00 | 54 | 1022.9 |
| 20260906112402 | 63 | 50 | 0.0 | 0.0 | 0.00 | 0.00 | 0.00 | 55 | 1022.8 |
| 20260906111902 | 62 | 99 | 0.0 | 0.0 | 0.00 | 0.00 | 0.00 | 55 | 1022.7 |
| 20260906110902 | 62 | 10 | 0.0 | 0.0 | 0.00 | 0.00 | 0.00 | 56 | 1022.7 |
| 20260906110402 | 62 | 10 | 0.0 | 0.0 | 0.00 | 0.00 | 0.00 | 56 | 1022.6 |
| 20260906105902 | 63 | 10 | 0.0 | 0.0 | 0.00 | 0.00 | 0.00 | 56 | 1022.6 |
| 20260906105402 | 63 | 10 | 0.0 | 0.0 | 0.00 | 0.00 | 0.00 | 54 | 1022.6 |
| 20260906104902 | 63 | 88 | 0.0 | 1.7 | 0.00 | 0.00 | 0.00 | 55 | 1022.5 |
| 20260906104402 | 63 | 76 | 0.0 | 0.0 | 0.00 | 0.00 | 0.00 | 55 | 1022.7 |
| 20260906103903 | 63 | 55 | 0.0 | 0.0 | 0.00 | 0.00 | 0.00 | 56 | 1022.6 |
| 20260906102903 | 63 | 40 | 0.0 | 0.9 | 0.00 | 0.00 | 0.00 | 56 | 1022.7 |
| 20260906102402 | 63 | 38 | 0.0 | 0.0 | 0.00 | 0.00 | 0.00 | 57 | 1022.7 |
| 20260906101902 | 63 | 57 | 0.0 | 0.0 | 0.00 | 0.00 | 0.00 | 58 | 1022.9 |
| 20260906101403 | 64 | 86 | 0.0 | 0.0 | 0.00 | 0.00 | 0.00 | 57 | 1022.9 |
| 20260906100902 | 64 | 86 | 0.0 | 0.0 | 0.00 | 0.00 | 0.00 | 57 | 1022.9 |
| 20260906094403 | 64 | 94 | 0.0 | 0.0 | 0.00 | 0.00 | 0.00 | 57 | 1023.1 |
| 20260906093903 | 64 | 82 | 0.0 | 0.0 | 0.00 | 0.00 | 0.00 | 58 | 1023.0 |
| 20260906093402 | 64 | 87 | 0.0 | 0.0 | 0.00 | 0.00 | 0.00 | 59 | 1023.0 |
| 20260906092903 | 64 | 78 | 0.0 | 0.0 | 0.00 | 0.00 | 0.00 | 59 | 1023.1 |
| 20260906092402 | 65 | 61 | 0.0 | 0.0 | 0.00 | 0.00 | 0.00 | 57 | 1023.0 |
| 20260906091402 | 65 | 85 | 0.0 | 1.7 | 0.00 | 0.00 | 0.00 | 57 | 1022.9 |
| 20260906090903 | 65 | 22 | 0.0 | 1.7 | 0.00 | 0.00 | 0.00 | 58 | 1022.8 |
| 20260906090403 | 65 | 13 | 0.0 | 1.7 | 0.00 | 0.00 | 0.00 | 59 | 1022.9 |
| 20260906085902 | 65 | 14 | 0.0 | 1.7 | 0.00 | 0.00 | 0.00 | 60 | 1022.9 |
| 20260906085403 | 65 | 23 | 0.0 | 0.9 | 0.00 | 0.00 | 0.00 | 60 | 1022.9 |
| 20260906084902 | 65 | 86 | 0.0 | 0.0 | 0.00 | 0.00 | 0.00 | 60 | 1022.9 |
| 20260906084402 | 65 | 57 | 0.0 | 0.9 | 0.00 | 0.00 | 0.00 | 60 | 1022.9 |
| 20260906083402 | 65 | 4 | 0.0 | 1.7 | 0.00 | 0.00 | 0.00 | 60 | 1023.0 |
| 20260906082902 | 65 | 56 | 0.0 | 0.9 | 0.00 | 0.00 | 0.00 | 61 | 1023.0 |
| 20260906082402 | 65 | 10 | 0.0 | 1.7 | 0.00 | 0.00 | 0.00 | 61 | 1023.0 |
| 20260906081903 | 65 | 330 | 0.0 | 0.0 | 0.00 | 0.00 | 0.00 | 62 | 1023.0 |
| 20260906081403 | 65 | 36 | 0.0 | 0.0 | 0.00 | 0.00 | 0.00 | 63 | 1022.9 |
| 20260906080902 | 65 | 52 | 0.0 | 0.0 | 0.00 | 0.00 | 0.00 | 64 | 1022.9 |
| 20260906080403 | 64 | 317 | 0.0 | 2.6 | 0.00 | 0.00 | 0.00 | 67 | 1023.0 |
| 20260906075903 | 64 | 37 | 0.0 | 1.7 | 0.00 | 0.00 | 0.00 | 70 | 1023.1 |
| 20260906075403 | 64 | 2 | 0.0 | 1.7 | 0.00 | 0.00 | 0.00 | 70 | 1023.2 |
| 20260906074903 | 64 | 91 | 0.0 | 0.9 | 0.00 | 0.00 | 0.00 | 71 | 1023.3 |
| 20260906074403 | 63 | 63 | 0.0 | 1.7 | 0.00 | 0.00 | 0.00 | 71 | 1023.3 |
| 20260906073903 | 63 | 44 | 0.0 | 0.0 | 0.00 | 0.00 | 0.00 | 72 | 1023.2 |
| 20260906073403 | 63 | 72 | 0.0 | 0.0 | 0.00 | 0.00 | 0.00 | 72 | 1023.2 |
| 20260906072903 | 63 | 68 | 0.0 | 0.0 | 0.00 | 0.00 | 0.00 | 72 | 1023.2 |
| 20260906072402 | 63 | 60 | 0.0 | 0.9 | 0.00 | 0.00 | 0.00 | 71 | 1023.3 |
| 20260906071902 | 64 | 80 | 0.0 | 0.0 | 0.00 | 0.00 | 0.00 | 71 | 1023.3 |
| 20260906071402 | 64 | 80 | 0.0 | 0.0 | 0.00 | 0.00 | 0.00 | 70 | 1023.4 |
| 20260906070903 | 64 | 80 | 0.0 | 0.0 | 0.00 | 0.00 | 0.00 | 70 | 1023.4 |
| 20260906070403 | 64 | 80 | 0.0 | 0.0 | 0.00 | 0.00 | 0.00 | 70 | 1023.4 |
| 20260906065902 | 64 | 316 | 0.0 | 0.0 | 0.00 | 0.00 | 0.00 | 70 | 1023.6 |
| 20260906065402 | 64 | 10 | 0.0 | 0.9 | 0.00 | 0.00 | 0.00 | 70 | 1023.7 |
| 20260906064903 | 65 | 89 | 0.0 | 0.0 | 0.00 | 0.00 | 0.00 | 68 | 1023.7 |
| 20260906064403 | 65 | 89 | 0.0 | 0.0 | 0.00 | 0.00 | 0.00 | 69 | 1023.6 |
| 20260906063903 | 65 | 89 | 0.0 | 0.0 | 0.00 | 0.00 | 0.00 | 68 | 1023.6 |
| 20260906062903 | 65 | 89 | 0.0 | 1.7 | 0.00 | 0.00 | 0.00 | 67 | 1023.4 |
| 20260906062403 | 65 | 78 | 0.0 | 1.7 | 0.00 | 0.00 | 0.00 | 68 | 1023.3 |
| 20260906061403 | 65 | 97 | 0.0 | 0.0 | 0.00 | 0.00 | 0.00 | 68 | 1023.4 |
| 20260906060903 | 65 | 96 | 0.0 | 0.0 | 0.00 | 0.00 | 0.00 | 68 | 1023.3 |
| 20260906060403 | 65 | 100 | 0.0 | 0.0 | 0.00 | 0.00 | 0.00 | 68 | 1023.3 |
| 20260906055903 | 65 | 101 | 0.0 | 0.0 | 0.00 | 0.00 | 0.00 | 68 | 1023.2 |
| 20260906055402 | 65 | 111 | 0.0 | 0.0 | 0.00 | 0.00 | 0.00 | 68 | 1023.1 |
| 20260906054903 | 65 | 91 | 0.0 | 0.0 | 0.00 | 0.00 | 0.00 | 69 | 1023.2 |
| 20260906054403 | 65 | 102 | 0.0 | 0.0 | 0.00 | 0.00 | 0.00 | 70 | 1023.0 |
| 20260906053902 | 65 | 108 | 0.0 | 0.0 | 0.00 | 0.00 | 0.00 | 70 | 1023.0 |
| 20260906053403 | 65 | 109 | 0.0 | 0.9 | 0.00 | 0.00 | 0.00 | 71 | 1023.1 |
| 20260906052903 | 65 | 109 | 0.0 | 0.0 | 0.00 | 0.00 | 0.00 | 71 | 1023.1 |
| 20260906052403 | 65 | 109 | 0.0 | 0.0 | 0.00 | 0.00 | 0.00 | 72 | 1023.1 |
| 20260906051403 | 65 | 109 | 0.0 | 0.9 | 0.00 | 0.00 | 0.00 | 71 | 1023.2 |
| 20260906050903 | 65 | 256 | 0.0 | 0.0 | 0.00 | 0.00 | 0.00 | 71 | 1023.2 |
| 20260906050403 | 65 | 256 | 0.0 | 0.0 | 0.00 | 0.00 | 0.00 | 70 | 1023.3 |
| 20260906045903 | 66 | 256 | 0.0 | 0.0 | 0.00 | 0.00 | 0.00 | 70 | 1023.2 |
| 20260906045402 | 66 | 256 | 0.0 | 0.0 | 0.00 | 0.00 | 0.00 | 70 | 1023.3 |
| 20260906044903 | 66 | 256 | 0.0 | 0.0 | 0.00 | 0.00 | 0.00 | 70 | 1023.4 |
| 20260906043903 | 66 | 256 | 0.0 | 0.0 | 0.00 | 0.00 | 0.00 | 69 | 1023.5 |
| 20260906043403 | 66 | 256 | 0.0 | 0.0 | 0.00 | 0.00 | 0.00 | 68 | 1023.5 |
| 20260906042903 | 67 | 256 | 0.0 | 0.0 | 0.00 | 0.00 | 0.00 | 68 | 1023.6 |
| 20260906042403 | 67 | 256 | 0.0 | 0.0 | 0.00 | 0.00 | 0.00 | 67 | 1023.5 |
| 20260906041903 | 67 | 256 | 0.0 | 0.0 | 0.00 | 0.00 | 0.00 | 67 | 1023.6 |
| 20260906040904 | 67 | 256 | 0.0 | 0.0 | 0.00 | 0.00 | 0.00 | 67 | 1023.7 |
| 20260906040403 | 68 | 256 | 0.0 | 0.0 | 0.00 | 0.00 | 0.00 | 66 | 1023.6 |
| 20260906035903 | 68 | 256 | 0.0 | 0.0 | 0.00 | 0.00 | 0.00 | 66 | 1023.7 |
| 20260906034903 | 69 | 256 | 0.0 | 0.9 | 0.00 | 0.00 | 0.00 | 64 | 1023.7 |
| 20260906034402 | 69 | 256 | 0.0 | 0.0 | 0.00 | 0.00 | 0.00 | 63 | 1023.7 |
| 20260906033903 | 69 | 256 | 0.0 | 0.9 | 0.00 | 0.00 | 0.00 | 63 | 1023.6 |
| 20260906033403 | 69 | 312 | 0.0 | 0.0 | 0.00 | 0.00 | 0.00 | 63 | 1023.5 |
| 20260906032403 | 70 | 88 | 0.0 | 1.7 | 0.00 | 0.00 | 0.00 | 62 | 1023.4 |
| 20260906031903 | 70 | 93 | 0.0 | 2.6 | 0.00 | 0.00 | 0.00 | 62 | 1023.3 |
| 20260906030903 | 71 | 101 | 0.0 | 4.3 | 0.00 | 0.00 | 0.00 | 61 | 1023.3 |
| 20260906030403 | 71 | 93 | 0.9 | 2.6 | 0.00 | 0.00 | 0.00 | 61 | 1023.1 |
| 20260906025403 | 71 | 95 | 0.9 | 1.7 | 0.00 | 0.00 | 0.00 | 61 | 1022.9 |
| 20260906024903 | 71 | 105 | 2.6 | 4.3 | 0.00 | 0.00 | 0.00 | 60 | 1022.9 |
| 20260906023903 | 72 | 92 | 0.0 | 2.6 | 0.00 | 0.00 | 0.00 | 59 | 1022.8 |
| 20260906023403 | 72 | 102 | 2.6 | 4.3 | 0.00 | 0.00 | 0.00 | 59 | 1022.7 |
| 20260906022904 | 73 | 83 | 1.7 | 6.1 | 0.00 | 0.00 | 0.00 | 58 | 1022.7 |
| 20260906022403 | 73 | 96 | 1.7 | 7.0 | 0.00 | 0.00 | 0.00 | 57 | 1022.7 |
| 20260906021903 | 73 | 90 | 1.7 | 5.2 | 0.00 | 0.00 | 0.00 | 55 | 1022.7 |
| 20260906021403 | 74 | 99 | 2.6 | 6.1 | 0.00 | 0.00 | 0.00 | 52 | 1022.5 |
| 20260906020903 | 74 | 96 | 2.6 | 8.7 | 0.00 | 0.00 | 0.00 | 45 | 1022.4 |
| 20260906020403 | 74 | 86 | 1.7 | 8.7 | 0.00 | 0.00 | 0.00 | 35 | 1022.1 |
| 20260906015903 | 74 | 84 | 0.0 | 0.9 | 0.00 | 0.00 | 0.00 | 35 | 1021.9 |
| 20260906014903 | 74 | 99 | 0.0 | 1.7 | 0.00 | 0.00 | 0.00 | 35 | 1021.8 |
| 20260906014403 | 75 | 87 | 0.9 | 2.6 | 0.00 | 0.00 | 0.00 | 34 | 1021.7 |
| 20260906013903 | 75 | 86 | 0.9 | 1.7 | 0.00 | 0.00 | 0.00 | 34 | 1021.7 |
| 20260906013403 | 75 | 90 | 0.0 | 2.6 | 0.00 | 0.00 | 0.00 | 34 | 1021.7 |
| 20260906012903 | 75 | 92 | 0.0 | 1.7 | 0.00 | 0.00 | 0.00 | 34 | 1021.7 |
| 20260906012403 | 76 | 88 | 0.0 | 0.9 | 0.00 | 0.00 | 0.00 | 33 | 1021.7 |
| 20260906011903 | 77 | 86 | 0.0 | 2.6 | 0.00 | 0.00 | 0.00 | 32 | 1021.8 |
| 20260906011403 | 77 | 94 | 0.0 | 0.9 | 0.00 | 0.00 | 0.00 | 32 | 1021.9 |
| 20260906010904 | 78 | 3 | 0.0 | 0.9 | 0.00 | 0.00 | 0.00 | 31 | 1021.8 |
| 20260906010404 | 79 | 2 | 0.0 | 1.7 | 0.00 | 0.00 | 0.00 | 31 | 1021.9 |
| 20260906005903 | 79 | 354 | 0.9 | 2.6 | 0.00 | 0.00 | 0.00 | 30 | 1022.0 |
| 20260906005403 | 79 | 51 | 0.9 | 2.6 | 0.00 | 0.00 | 0.00 | 32 | 1022.1 |
| 20260906004903 | 79 | 16 | 0.0 | 2.6 | 0.00 | 0.00 | 0.00 | 31 | 1022.1 |
| 20260906004403 | 79 | 58 | 0.0 | 1.7 | 0.00 | 0.00 | 0.00 | 31 | 1022.2 |
| 20260906003903 | 79 | 9 | 0.9 | 2.6 | 0.00 | 0.00 | 0.00 | 31 | 1022.2 |
| 20260906002903 | 79 | 314 | 1.7 | 2.6 | 0.00 | 0.00 | 0.00 | 32 | 1022.2 |
| 20260906002403 | 79 | 303 | 1.7 | 2.6 | 0.00 | 0.00 | 0.00 | 31 | 1022.1 |
| 20260906001904 | 80 | 300 | 0.9 | 4.3 | 0.00 | 0.00 | 0.00 | 32 | 1022.1 |
| 20260906001403 | 80 | 282 | 1.7 | 4.3 | 0.00 | 0.00 | 0.00 | 30 | 1022.1 |
| 20260906000903 | 80 | 49 | 0.0 | 0.9 | 0.00 | 0.00 | 0.00 | 30 | 1022.0 |
| 20260906000403 | 81 | 83 | 0.0 | 0.9 | 0.00 | 0.00 | 0.00 | 29 | 1022.0 |
| 20260905235404 | 81 | 327 | 0.9 | 1.7 | 0.00 | 0.00 | 0.00 | 28 | 1022.0 |
| 20260905234903 | 81 | 82 | 0.0 | 0.0 | 0.00 | 0.00 | 0.00 | 30 | 1021.9 |
| 20260905234403 | 80 | 82 | 0.0 | 0.0 | 0.00 | 0.00 | 0.00 | 28 | 1021.9 |
| 20260905233903 | 81 | 82 | 0.0 | 1.7 | 0.00 | 0.00 | 0.00 | 29 | 1021.9 |
| 20260905233403 | 81 | 90 | 0.9 | 2.6 | 0.00 | 0.00 | 0.00 | 27 | 1021.9 |
| 20260905232404 | 81 | 87 | 0.0 | 2.6 | 0.00 | 0.00 | 0.00 | 28 | 1021.8 |
| 20260905231904 | 81 | 108 | 0.9 | 1.7 | 0.00 | 0.00 | 0.00 | 28 | 1021.8 |
| 20260905231403 | 81 | 79 | 0.9 | 2.6 | 0.00 | 0.00 | 0.00 | 28 | 1021.7 |
| 20260905230904 | 81 | 76 | 0.0 | 1.7 | 0.00 | 0.00 | 0.00 | 28 | 1021.8 |
| 20260905230403 | 81 | 314 | 0.0 | 0.0 | 0.00 | 0.00 | 0.00 | 27 | 1021.8 |
| 20260905225904 | 81 | 314 | 0.0 | 1.7 | 0.00 | 0.00 | 0.00 | 28 | 1021.8 |
| 20260905225404 | 82 | 328 | 0.9 | 1.7 | 0.00 | 0.00 | 0.00 | 28 | 1021.9 |
| 20260905224903 | 82 | 244 | 0.0 | 1.7 | 0.00 | 0.00 | 0.00 | 27 | 1021.9 |
| 20260905224404 | 82 | 56 | 0.0 | 1.7 | 0.00 | 0.00 | 0.00 | 27 | 1021.9 |
| 20260905223404 | 80 | 306 | 0.0 | 2.6 | 0.00 | 0.00 | 0.00 | 31 | 1022.0 |
| 20260905222903 | 80 | 326 | 0.9 | 2.6 | 0.00 | 0.00 | 0.00 | 30 | 1022.1 |
| 20260905222404 | 80 | 319 | 0.9 | 2.6 | 0.00 | 0.00 | 0.00 | 30 | 1022.2 |
| 20260905221904 | 80 | 303 | 1.7 | 2.6 | 0.00 | 0.00 | 0.00 | 30 | 1022.3 |
| 20260905221404 | 80 | 224 | 1.7 | 4.3 | 0.00 | 0.00 | 0.00 | 29 | 1022.2 |
| 20260905220904 | 81 | 84 | 0.0 | 1.7 | 0.00 | 0.00 | 0.00 | 29 | 1022.2 |
| 20260905220404 | 81 | 315 | 0.0 | 1.7 | 0.00 | 0.00 | 0.00 | 29 | 1022.2 |
| 20260905215403 | 81 | 251 | 0.0 | 1.7 | 0.00 | 0.00 | 0.00 | 30 | 1022.2 |